Weather History for Green Bay, WI

Change the Weather History Date:

Wednesday, January 15, 2014

  Actual Average Record
Temperature  
Mean Temperature 14 °F 16 °F  
Max Temperature 18 °F 24 °F 45 °F (1949)
Min Temperature 10 °F 9 °F -28 °F (1972)
Degree Days  
Heating Degree Days 51 49  
Month to date heating degree days 813 725  
Since 1 July heating degree days 3968 3815  
Cooling Degree Days 0 0  
Month to date cooling degree days 0 0  
Year to date cooling degree days 0 0  
Moisture  
Dew Point 7 °F    
Average Humidity 72    
Maximum Humidity 83    
Minimum Humidity 61    
Precipitation  
Precipitation T in 0.04 in 0.79 in (1906)
Month to date precipitation 0.76 0.58  
Year to date precipitation 0.76 0.58  
Snow  
Snow T in 0.50 in 4.00 in (1930)
Month to date snowfall 7.5 6.1  
Since 1 July snowfall 35.1 23.4  
Snow Depth 13.00 in    
Sea Level Pressure  
Sea Level Pressure 29.93 in    
Wind  
Wind Speed 12 mph (WSW)    
Max Wind Speed 20 mph    
Max Gust Speed 30 mph    
Visibility 10 miles    
Events Snow    
T = Trace of Precipitation, MM = Missing Value Source: NWS Daily Summary

Daily Weather History Graph

Daily Weather History Graph

Search for Another Location

Airport:

Trip Planner

Search our weather history database for the weather conditions in past years. The results will help you decide how hot, cold, wet, or windy it might be!

Date:

Astronomy

Jan. 15, 2014 Rise Set
Actual Time 7:25 AM CST 4:38 PM CST
Civil Twilight 6:53 AM CST 5:11 PM CST
Nautical Twilight 6:17 AM CST 5:47 PM CST
Astronomical Twilight 5:42 AM CST 6:22 PM CST
Moon 4:38 PM CST (1/15) 6:39 AM CST (1/15)
Length of Visible Light 10h 18m
Length of Day
9h 13m
Full, 100% of the Moon is Illuminated
Jan 15
Full
Jan 15
Full
Jan 23
Last Quarter
Jan 30
New
Feb 6
First Quarter

Hourly Weather History & Observations

Time (CST) Temp. Windchill Dew Point Humidity Pressure Visibility Wind Dir Wind Speed Gust Speed Precip Events Conditions
12:53 AM 16.0 °F 1.7 °F 10.9 °F 81% 29.88 in 7.0 mi NW 13.8 mph - N/A   Overcast
1:53 AM 16.0 °F 1.1 °F 9.0 °F 74% 29.91 in 10.0 mi NNW 15.0 mph 24.2 mph N/A   Overcast
2:53 AM 12.9 °F 0.7 °F 6.1 °F 74% 29.94 in 10.0 mi NW 9.2 mph - 0.00 in Snow Light Snow
3:19 AM 14.0 °F 2.0 °F 7.0 °F 74% 29.91 in 9.0 mi NW 9.2 mph - 0.00 in Snow Light Snow
3:53 AM 15.1 °F 1.8 °F 7.0 °F 70% 29.96 in 10.0 mi NNW 11.5 mph - 0.00 in   Overcast
4:53 AM 15.1 °F 5.2 °F 7.0 °F 70% 29.97 in 10.0 mi NW 6.9 mph - N/A   Overcast
5:53 AM 15.1 °F 6.4 °F 8.1 °F 74% 29.99 in 10.0 mi WNW 5.8 mph - N/A   Overcast
6:53 AM 15.1 °F - 9.0 °F 77% 30.00 in 10.0 mi Calm Calm - N/A   Overcast
7:53 AM 16.0 °F 3.6 °F 8.1 °F 71% 30.03 in 10.0 mi NW 10.4 mph - N/A   Overcast
8:53 AM 15.1 °F 4.2 °F 6.1 °F 68% 30.03 in 10.0 mi NNW 8.1 mph - 0.00 in   Overcast
9:53 AM 16.0 °F 7.4 °F 8.1 °F 71% 30.04 in 10.0 mi NW 5.8 mph - N/A   Overcast
10:53 AM 17.1 °F 3.0 °F 7.0 °F 65% 30.03 in 10.0 mi West 13.8 mph - 0.00 in   Overcast
11:53 AM 17.1 °F 5.0 °F 8.1 °F 68% 30.01 in 10.0 mi West 10.4 mph - 0.00 in   Overcast
12:53 PM 17.1 °F 3.6 °F 9.0 °F 71% 29.99 in 10.0 mi WSW 12.7 mph - N/A   Overcast
1:53 PM 16.0 °F 1.1 °F 8.1 °F 71% 29.96 in 10.0 mi SW 15.0 mph - 0.00 in   Overcast
2:53 PM 14.0 °F -0.2 °F 7.0 °F 74% 29.96 in 10.0 mi SSW 12.7 mph 19.6 mph N/A   Scattered Clouds
3:05 PM 15.1 °F 1.8 °F 7.0 °F 70% 29.92 in 10.0 mi SSW 11.5 mph - N/A   Mostly Cloudy
3:21 PM 14.0 °F -1.4 °F 7.0 °F 74% 29.92 in 10.0 mi SSW 15.0 mph 20.7 mph N/A   Scattered Clouds
3:53 PM 12.9 °F -2.2 °F 6.1 °F 74% 29.96 in 10.0 mi SW 13.8 mph 24.2 mph N/A   Clear
4:53 PM 10.9 °F -1.8 °F 5.0 °F 77% 29.95 in 10.0 mi SSW 9.2 mph - N/A   Partly Cloudy
5:53 PM 10.9 °F -3.4 °F 6.1 °F 81% 29.93 in 10.0 mi South 11.5 mph - N/A   Clear
6:53 PM 10.9 °F -3.4 °F 5.0 °F 77% 29.88 in 10.0 mi SSW 11.5 mph 20.7 mph N/A   Scattered Clouds
7:53 PM 10.9 °F -5.4 °F 5.0 °F 77% 29.86 in 10.0 mi SSW 15.0 mph 23.0 mph 0.00 in Snow Light Snow
8:53 PM 12.0 °F -4.5 °F 5.0 °F 73% 29.81 in 9.0 mi SSW 16.1 mph 24.2 mph 0.00 in   Overcast
9:53 PM 12.0 °F -5.6 °F 5.0 °F 73% 29.78 in 9.0 mi SSW 18.4 mph 25.3 mph N/A   Overcast
10:53 PM 12.0 °F -4.5 °F 6.1 °F 77% 29.74 in 6.0 mi SSW 16.1 mph 25.3 mph 0.00 in Snow Light Snow
11:53 PM 12.9 °F -2.2 °F 8.1 °F 81% 29.68 in 7.0 mi SSW 13.8 mph 27.6 mph 0.00 in Snow Light Snow